Location: Unspecified
(0.0000°N, 0.0000°E)
Time: 23:19:09
(UTC+00:00)

Courier 1B - Visible Passes

Search period start: 26 August 2016 00:00
Search period end: 05 September 2016 00:00
Orbit: 962 x 1209 km, 28.3° (Epoch: 26 August)

Date Brightness Start Highest point End Pass type
(mag) Time Alt. Az. Time Alt. Az. Time Alt. Az.
26 Aug 9.4 19:13:47 10° SSW 19:18:07 16° SSE 19:19:21 15° SSE visible
26 Aug 10.2 21:06:01 10° SW 21:06:17 11° SW 21:06:17 11° SW visible
27 Aug 9.6 18:20:56 10° S 18:23:49 12° SSE 18:26:40 10° SE visible
27 Aug 9.1 20:12:21 10° SW 20:16:16 27° SSW 20:16:16 27° SSW visible
28 Aug 8.8 19:18:49 10° SSW 19:25:05 27° SSE 19:26:18 26° SE visible
28 Aug 10.0 21:12:09 10° WSW 21:13:14 15° WSW 21:13:14 15° WSW visible
29 Aug 9.2 18:25:25 10° SSW 18:30:56 21° SSE 18:36:16 10° ESE visible
29 Aug 8.5 20:18:13 10° SW 20:23:20 43° SSW 20:23:20 43° SSW visible
30 Aug 8.1 19:24:25 10° SW 19:31:47 46° SSE 19:33:29 40° ESE visible
30 Aug 10.0 21:18:49 10° WSW 21:20:25 17° WSW 21:20:25 17° WSW visible
31 Aug 8.6 18:30:47 10° SW 18:37:45 35° SSE 18:43:41 13° E visible
31 Aug 8.2 20:24:34 10° WSW 20:30:38 57° W 20:30:38 57° W visible
01 Sep 7.7 19:30:30 10° WSW 19:38:19 80° SSE 19:40:52 45° ENE visible
01 Sep 10.1 21:26:10 10° W 21:27:49 16° W 21:27:49 16° W visible
02 Sep 9.7 05:11:57 10° NNW 05:16:12 18° NNE 05:20:29 10° ENE visible
02 Sep 8.0 18:36:37 10° SW 18:44:20 60° SSE 18:51:07 13° ENE visible
02 Sep 8.7 20:31:31 10° W 20:38:04 43° NW 20:38:04 43° NW visible
03 Sep 9.9 04:19:28 10° N 04:22:14 13° NNE 04:25:00 10° NE visible
03 Sep 8.2 19:37:07 10° WSW 19:44:47 60° NNW 19:48:19 32° NE visible
03 Sep 10.3 21:34:28 10° WNW 21:35:15 12° WNW 21:35:15 12° WNW visible
04 Sep 9.0 05:17:17 10° NNW 05:22:58 32° NNE 05:28:44 10° E visible
04 Sep 8.0 18:42:55 10° WSW 18:50:49 81° NNW 18:58:26 10° ENE visible
04 Sep 9.4 20:39:13 10° W 20:45:20 26° NNW 20:45:29 26° NNW visible
